Regional Weather Roundup
Issued by NWS

Home | Current Version | Previous Version | Graphics & Text | Print | Product List | Glossary On
Versions: 1 2 3 4 5 6 7 8 9 10 11 12 13 14 15 16 17 18 19 20 21 22 23 24 25 26 27 28 29 30 31 32 33 34 35 36 37 38 39 40 41 42 43 44 45 46 47 48 49 50
000
ASUS43 KDMX 211007
RWRIA

WEATHER ROUNDUP FOR IOWA
NATIONAL WEATHER SERVICE DES MOINES IA
400 AM CST FRI NOV 21 2014

NOTE: "FAIR" INDICATES FEW OR NO CLOUDS BELOW 12,000 FEET WITH NO
SIGNIFICANT WEATHER AND/OR OBSTRUCTIONS TO VISIBILITY.

* - THESE STATIONS ARE NOT NWS STATIONS...THUS NOT UNDER NWS
QUALITY CONTROL.  THEY ALSO DO NOT REPORT WEATHER SUCH
AS PRECIPITATION OR FOG.

IAZ001>003-012>014-020>022-031>034-043>046-211100-
   NORTHWEST IOWA

CITY           SKY/WX    TMP DP  RH WIND       PRES   REMARKS
CARROLL *      MOCLDY    10   7  85 SE7       30.25F WCI   0
CHEROKEE *     PTCLDY    12   9  85 S7        30.21F WCI   2
DENISON *      CLEAR     18  12  79 SE10      30.20F WCI   6
LE MARS *      CLEAR     16  12  86 S8        30.19F WCI   5
ORANGE CITY *  CLEAR     16  10  79 S8        30.16F WCI   5
SHELDON *      CLEAR     10   7  85 S13       30.17F WCI  -5
SIOUX CITY     PTCLDY    13   9  84 SE9       30.21F WCI   1
SPENCER        PTCLDY    11   6  81 S9        30.20F WCI  -2
STORM LAKE *   CLEAR     12   7  79 S13       30.21F WCI  -3
$$

IAZ055>058-069>071-079>083-090>094-211100-
   SOUTHWEST IOWA

CITY           SKY/WX    TMP DP  RH WIND       PRES   REMARKS
ATLANTIC *     CLEAR     19  12  73 CALM      30.25F
AUDUBON *      CLEAR     10   3  72 CALM      30.24F
CLARINDA *     CLEAR     18  12  79 CALM      30.28F
COUNCIL BLFS * CLEAR     18  14  86 SE10      30.21F WCI   6
CRESTON *      CLEAR     18  12  79 SE9       30.27S WCI   6
HARLAN  *      CLEAR     18  12  79 S6        30.27F WCI   9
LAMONI         PTCLDY    16  10  77 E7        30.28F WCI   6
RED OAK *      PTCLDY    19  14  79 CALM      30.26F
SHENANDOAH *   CLEAR     19  14  79 E6        30.26F WCI  11
$$

IAZ047>049-059>061-072>074-084-211100-
   CENTRAL IOWA

CITY           SKY/WX    TMP DP  RH WIND       PRES   REMARKS
AMES           PTCLDY     6   2  83 CALM      30.31F
ANKENY *       CLEAR      9   3  78 CALM      30.33S
CHARITON *     PTCLDY    14   9  79 SE6       30.30F WCI   5
DES MOINES     MOCLDY    16   9  74 SE6       30.31F WCI   7
GRINNELL*      PTCLDY    10   7  85 SE5       30.32F WCI   2
KNOXVILLE *    CLEAR     14   7  73 SE6       30.30F WCI   5
MARSHALLTOWN   PTCLDY     5   2  87 S7        30.32R WCI  -7
PELLA *        MOCLDY    12   9  85 SE5       30.34F WCI   4
PERRY *          N/A     10   9  92 SE6       30.29F WCI   1
$$

IAZ004>006-015-016-023>025-035-036-211100-
   NORTH CENTRAL IOWA

CITY           SKY/WX    TMP DP  RH WIND       PRES   REMARKS
ALGONA *       CLEAR      9   5  85 S16       30.24F WCI  -9
CLARION *      CLEAR      3   0  85 S9        30.27F WCI -11
ESTHERVILLE    PTCLDY     3   0  87 S12       30.20F WCI -13
FORT DODGE *   MOCLDY    10   5  79 SE3       30.27F
MASON CITY     PTCLDY    -1  -5  82 S5        30.28F WCI -11
FOREST CITY *  CLEAR      3   0  85 SE3       30.25F
IOWA FALLS *     N/A      5   1  85 S3        30.30F
$$

IAZ007>011-017>019-026>030-037>042-050>054-066-211100-
   NORTHEAST IOWA

CITY           SKY/WX    TMP DP  RH WIND       PRES   REMARKS
CEDAR RAPIDS   PTCLDY     5   3  91 E5        30.34S WCI  -4
CHARLES CITY * CLEAR      3  -2  78 SE7       30.30F WCI  -9
CLINTON *      PTCLDY     3   0  85 CALM      30.41R
DECORAH *      CLEAR      5   1  85 S3        30.30S
DUBUQUE        PTCLDY     2  -2  83 CALM      30.34R
MONTICELLO *   CLEAR      1  -2  85 CALM      30.37R
OELWEIN *      CLEAR      1  -4  78 SE7       30.32F WCI -11
WATERLOO       MOCLDY    -1  -4  87 E3        30.32F
$$

IAZ064-065-067-068-078-211100-
   EAST CENTRAL IOWA

CITY           SKY/WX    TMP DP  RH WIND       PRES   REMARKS
DAVENPORT      PTCLDY     7   1  76 E3        30.38S
IOWA CITY      PTCLDY    10   6  84 CALM      30.38S
MT. PLEASANT * PTCLDY     9   5  85 S3        30.37S
MUSCATINE *    CLEAR      9   5  85 CALM      30.40R
QUAD CITIES    PTCLDY     6   2  83 SE3       30.39R
$$

IAZ062-063-075>077-085>089-095>099-211100-
   SOUTHEAST IOWA

CITY           SKY/WX    TMP DP  RH WIND       PRES   REMARKS
BURLINGTON       N/A     15  10  80 SE3       30.37S
FAIRFIELD *    CLEAR     10   3  72 E3        30.35F
FORT MADISON * CLEAR     16  12  86 SE3       30.37F
KEOKUK *       CLEAR     16  10  79 E8        30.36F WCI   5
OSKALOOSA *      N/A     10   7  85 SE6       30.34F WCI   1
CENTERVILLE *  CLEAR     12   9  85 SE5       30.32F WCI   4
OTTUMWA        MOCLDY    14   7  73 E7        30.33F WCI   4
WASHINGTON *   CLEAR      9   7  92 SE5       30.36S WCI   0
$$

ABBREVIATIONS USED IN REMARKS
   TC - TEMPERATURES IN CELSIUS
  WCI - WIND CHILL INDEX
   HX - HEAT INDEX
  VSB - VISIBILITY
$$



USA.gov is the U.S. government's official web portal to all federal, state and local government web resources and services.